Flag for Italy

Past Weather in San Michele al Tagliamento, Italy — Yesterday and Last 2 Weeks

Now
61 °F

Sunny.


Feels Like: 61 °F
Forecast: 87 / 64 °F
Wind: 3 mph from Northeast

Location: Ronchi Dei Legionari Airport

Current Time: Aug 18, 2019 at 7:22:34 am

Latest Report: Aug 18, 2019 at 6:50 am


Visibility: 10 mi

Pressure: 29.98 "Hg

Humidity: 94%

Dew Point: 59 °F

Location of San Michele al TagliamentoLocation

Past Weather in San Michele al Tagliamento — Graph

°F

San Michele al Tagliamento Temperature Yesterday

Maximum temperature yesterday: 84 °F (at 1:20 pm)
Minimum temperature yesterday: 59 °F (at 6:20 am)
Average temperature yesterday: 73 °F

High & Low Weather Summary for the Past Weeks

 TemperatureHumidityPressure
High93 °F (Aug 11, 3:20 pm)100% (Aug 6, 1:50 am)30.04 "Hg (Aug 6, 1:50 am)
Low59 °F (Aug 17, 6:20 am)32% (Aug 16, 4:50 pm)29.74 "Hg (Aug 13, 8:20 pm)
Average77 °F69%29.93 "Hg
* Reported Aug 3 5:20 am — Aug 18 5:50 am, San Michele al Tagliamento. Weather by CustomWeather, © 2019

Note: Actual official high and low records may vary slightly from our data, if they occured in-between our weather recording intervals... More about our weather records

Advertising

San Michele al Tagliamento Weather History for the Previous 24 Hours

Scroll right to see more
 ConditionsComfort  
Time TempWeatherWind HumidityBarometerVisibility
5:50 am
Sun, Aug 18
61 °FCool.2 mph94%29.98 "HgN/A
5:20 am63 °FMild.5 mph83%29.98 "HgN/A
4:50 am63 °FMild.3 mph88%29.98 "HgN/A
4:20 am61 °FCool.1 mph94%30.01 "HgN/A
3:50 am63 °FMild.3 mph88%30.01 "HgN/A
3:20 am63 °FMild.2 mph83%30.01 "HgN/A
2:50 am64 °FMild.5 mph78%30.01 "HgN/A
2:20 am64 °FMild.2 mph83%30.01 "HgN/A
1:50 am64 °FMild.5 mph83%30.01 "HgN/A
1:20 am64 °FMild.5 mph83%30.01 "HgN/A
12:50 am64 °FMild.1 mph88%30.01 "HgN/A
12:20 am66 °FMild.1 mph83%30.01 "HgN/A
11:50 pm
Sat, Aug 17
68 °FClear.6 mph78%29.98 "Hg10 mi
11:20 pm70 °FClear.5 mph73%29.98 "Hg10 mi
10:50 pm70 °FClear.3 mph73%29.98 "Hg10 mi
10:20 pm73 °FClear.5 mph65%29.98 "Hg10 mi
9:50 pm73 °FClear.2 mph69%29.98 "Hg10 mi
9:20 pm73 °FClear.1 mph74%29.98 "Hg10 mi
8:50 pm75 °FClear.2 mph61%29.98 "Hg10 mi
8:20 pm75 °FClear.3 mph61%29.98 "Hg10 mi
7:50 pm79 °FSunny.3 mph51%29.98 "Hg10 mi
7:20 pm79 °FSunny.5 mph51%29.98 "Hg10 mi
6:50 pm81 °FSunny.6 mph48%29.98 "Hg10 mi
6:20 pm81 °FSunny.6 mph42%29.98 "Hg10 mi
5:50 pm81 °FPassing clouds.6 mph45%29.98 "HgN/A
5:20 pm82 °FPassing clouds.7 mph40%30.01 "HgN/A
4:50 pm84 °FPassing clouds.8 mph40%30.01 "HgN/A
4:20 pm84 °FPassing clouds.8 mph37%30.01 "HgN/A
3:20 pm84 °FPassing clouds.8 mph35%30.01 "HgN/A
2:50 pm84 °FPassing clouds.9 mph37%30.01 "HgN/A
2:20 pm84 °FPassing clouds.9 mph35%30.01 "HgN/A
1:50 pm82 °FSunny.6 mph42%30.01 "Hg10 mi
1:20 pm84 °FPassing clouds.7 mph40%30.01 "HgN/A
12:50 pm82 °FSunny.2 mph40%30.01 "Hg10 mi
12:20 pm81 °FPassing clouds.3 mph42%30.04 "HgN/A
11:50 am81 °FSunny.5 mph45%30.04 "Hg10 mi
11:20 am81 °FSunny.1 mph42%30.04 "Hg10 mi
10:50 am79 °FPassing clouds.3 mph48%30.04 "HgN/A
10:20 am77 °FPassing clouds.3 mph54%30.04 "HgN/A
9:50 am75 °FSunny.2 mph54%30.04 "Hg10 mi
9:20 am75 °FSunny.1 mph54%30.01 "Hg10 mi
8:50 am72 °FSunny.2 mph61%30.04 "Hg10 mi
7:50 am68 °FSunny.2 mph69%30.01 "Hg10 mi
7:20 am64 °FSunny.2 mph78%30.01 "Hg10 mi
Weather by CustomWeather, © 2019

See weather overview